Weather Roundup
Issued by NWS Chicago, IL

Home | Current Version | Previous Version | Graphics & Text | Print | Product List | Glossary On
Versions: 1 2 3 4 5 6 7 8 9 10 11 12 13 14 15 16 17 18 19 20 21 22 23 24 25 26 27 28 29 30 31 32 33 34 35 36 37 38 39 40 41 42 43 44 45 46 47 48 49 50
000
NZUS59 KLOT 261706
HRRLOT

CHICAGO AREA WEATHER ROUNDUP
NATIONAL WEATHER SERVICE CHICAGO/ROMEOVILLE IL
1100 AM CST WED NOV 26 2014

NOTE: "FAIR" INDICATES FEW OR NO CLOUDS BELOW 12,000 FEET WITH NO
SIGNIFICANT WEATHER AND/OR OBSTRUCTIONS TO VISIBILITY.

* THESE STATIONS ARE NOT UNDER NWS QUALITY CONTROL. THEY ALSO MAY NOT
  REPORT WEATHER SUCH AS PRECIPITATION OR FOG.

ILZ005-006-012>014-019>023-261800-
NORTHEAST ILLINOIS

CITY           SKY/WX    TMP DP  RH WIND       PRES   REMARKS
OHARE          CLOUDY    26  20  77 SE8       30.13F WCI  18
MIDWAY         CLOUDY    28  20  71 SE9       30.14F WCI  19
AURORA         CLOUDY    25  18  74 E9        30.15S HAZE    WCI  15
LANSING*       CLOUDY    26  21  82 E7        30.16F WCI  18
JOLIET*        CLOUDY    25  20  80 SE6       30.15S WCI  18
WAUKEGAN         N/A     23  20  88 CALM      30.13F
DUPAGE AIRPORT CLOUDY    25  19  78 SE8       30.14S WCI  16
WHEELING       CLOUDY    26  21  81 S3        30.16F HAZE
KANKAKEE*      CLOUDY   N/A N/A N/A E10       30.14F
MORRIS*        CLOUDY    27  23  86 E8        30.14F WCI  18
LEWIS AIRPORT* CLOUDY    26  21  81 E8        30.14S WCI  17
NORTHERLY IS     N/A     27  22  81 SE13        N/A  WCI  16
$$

WIZ051-052-058>065-066-070>072-261800-
SOUTHEAST WISCONSIN

CITY           SKY/WX    TMP DP  RH WIND       PRES   REMARKS
MILWAUKEE      PTSUNNY   28  21  75 CALM      30.14F HAZE
KENOSHA*       PTSUNNY   24  21  88 CALM      30.14F FOG
RACINE*        PTSUNNY   25  20  81 W5        30.16F WCI  19
BURLINGTON     PTSUNNY   20  19  95 CALM      30.14S FOG
WAUKESHA       MOSUNNY   19  19 100 CALM      30.14F FOG
WEST BEND      PTSUNNY   27  19  74 CALM      30.14F
$$

INZ001>003-010>013-019-020-261800-
NORTHWEST INDIANA

CITY           SKY/WX    TMP DP  RH WIND       PRES   REMARKS
GARY*          CLOUDY    27  19  74 SE9       30.17S WCI  17
MICHIGAN CITY* NOT AVBL
RENSSELAER*    NOT AVBL
VALPARAISO     CLOUDY    26  19  74 SE8       30.15F WCI  18
$$

LMZ740>746-261800-
SOUTHERN LAKE MICHIGAN

STATION/POSITION TIME  SKY/WX   TEMP WIND        PRES    VSBY
                                AIR  DIR/SP/G
                 (UTC)          (F)  (DEG/KT/KT) (MB)    (MI)
HARRISON CRIB    1700            26  150/  8/ 12   N/A
BURNHAM HARBOR   1700            27  120/  8/ 12   N/A
CALUMET HARBOR   1700            26  130/  5/  6 1019.9F
BURNS HARBOR     NOT AVBL
MICHIGAN CITY    1700            26  100/  7/ 10   N/A
$$

ABBREVIATIONS USED IN REMARKS
   TC - TEMPERATURE IN CELSIUS
  WCI - WIND CHILL INDEX
   HX - HEAT INDEX
  VSB - VISIBILITY
$$



USA.gov is the U.S. government's official web portal to all federal, state and local government web resources and services.